This is the latest recevied weather packets stored in our database for station/object KC5TIL-3. If no packets are shown the sender has not sent any weather packets the latest 10 day(s).
| Time | Temp. | Humidity | Pressure | Rain* | Wind** | Luminosity | Snow |
|---|---|---|---|---|---|---|---|
| 1787404533 | 28.33° C | 29% | 1013.8 hPa | 0 mm | 2.24 m/s, 188° | - | - |
| 1787404231 | 28.33° C | 29% | 1013.8 hPa | 0 mm | 2.68 m/s, 235° | - | - |
| 1787403933 | 28.33° C | 29% | 1013.8 hPa | 0 mm | 2.24 m/s, 253° | - | - |
| 1787403635 | 27.78° C | 29% | 1013.8 hPa | 0 mm | 2.68 m/s, 216° | - | - |
| 1787403333 | 27.78° C | 29% | 1013.8 hPa | 0 mm | 2.24 m/s, 203° | - | - |
| 1787403030 | 27.78° C | 29% | 1013.8 hPa | 0 mm | 2.24 m/s, 179° | - | - |
| 1787402732 | 27.78° C | 29% | 1013.8 hPa | 0 mm | 1.79 m/s, 177° | - | - |
| 1787402431 | 27.78° C | 29% | 1013.8 hPa | 0 mm | 1.79 m/s, 250° | - | - |
| 1787402132 | 27.78° C | 30% | 1013.8 hPa | 0 mm | 1.79 m/s, 315° | - | - |
| 1787401834 | 27.78° C | 30% | 1013.8 hPa | 0 mm | 1.34 m/s, 249° | - | - |
| 1787401533 | 27.78° C | 30% | 1013.8 hPa | 0 mm | 2.68 m/s, 209° | - | - |
| 1787401235 | 27.22° C | 30% | 1013.8 hPa | 0 mm | 2.24 m/s, 219° | - | - |
| 1787400936 | 27.22° C | 30% | 1012.8 hPa | 0 mm | 3.13 m/s, 212° | - | - |
| 1787400635 | 27.22° C | 30% | 1012.8 hPa | 0 mm | 2.68 m/s, 205° | - | - |
| 1787400337 | 27.22° C | 30% | 1012.8 hPa | 0 mm | 3.13 m/s, 192° | - | - |
| 1787400039 | 27.22° C | 31% | 1012.8 hPa | 0 mm | 2.68 m/s, 212° | - | - |
| 1787399737 | 27.22° C | 30% | 1012.8 hPa | 0 mm | 1.79 m/s, 177° | - | - |
| 1787399439 | 27.22° C | 30% | 1012.8 hPa | 0 mm | 2.68 m/s, 197° | - | - |
| 1787399141 | 27.22° C | 30% | 1012.8 hPa | 0 mm | 2.68 m/s, 170° | - | - |
| 1787398840 | 27.22° C | 30% | 1012.8 hPa | 0 mm | 3.58 m/s, 202° | - | - |
| 1787398541 | 27.78° C | 29% | 1012.8 hPa | 0 mm | 2.68 m/s, 217° | - | - |
| 1787398243 | 27.78° C | 29% | 1012.8 hPa | 0 mm | 3.58 m/s, 246° | - | - |
| 1787397942 | 28.33° C | 29% | 1012.8 hPa | 0 mm | 3.13 m/s, 167° | - | - |
| 1787397644 | 28.33° C | 29% | 1012.8 hPa | 0 mm | 3.13 m/s, 217° | - | - |
| 1787397346 | 28.33° C | 29% | 1012.8 hPa | 0 mm | 3.13 m/s, 209° | - | - |
* Rain latest hour (hover to see other rain measurements)
** Current wind speed in m/s (hover to see current wind gust speed)